contact: severine.martini@mio.osupytheas.fr, dominique.lefevre@mio.osupytheas.fr
Project:EMSO Ligure-ouest http://www.emso-fr.org/EMSO-France
Sensor Optode, line 4330 Serial 272 
DOI : "https://doi.org/10.17882/97948" 
Title:EMSO Ligure Ouest : Data BathyDock capteur Optode - deploiement "2023-04-28"
Datetime,Profondeur,Latitude,Longitude,optode_type,serial,O2_concentration,O2_saturation,Temperature,Calibrated_Phase,Temp_Compensated_Phase,phase_blue_light,phase_red_light,Amplitude_blue_light,Amplitude_red_light,thermistor_bridge
time,m,degree_north,degree_east,1,1,umol.l-1,%,degree_C,degree,degree,degree,degree,mV,mV,mV
2024-01-24T09:24:10,2420,42.8014,5.9826,4330,272,186.442,57.086,13.297,36.047,36.627,41.221,4.594,296.2,548.0,291.6
2024-01-24T09:27:10,2420,42.8014,5.9826,4330,272,186.606,57.147,13.306,36.032,36.613,41.214,4.601,296.1,546.7,291.4
2024-01-24T09:30:10,2420,42.8014,5.9826,4330,272,186.491,57.120,13.312,36.037,36.617,41.211,4.594,296.1,546.6,291.2
2024-01-24T09:33:10,2420,42.8014,5.9826,4330,272,186.457,57.109,13.312,36.039,36.619,41.214,4.595,296.0,546.5,291.2
2024-01-24T09:36:10,2420,42.8014,5.9826,4330,272,186.329,57.065,13.308,36.050,36.630,41.222,4.592,296.1,546.5,291.3
2024-01-24T09:39:10,2420,42.8014,5.9826,4330,272,186.661,57.177,13.316,36.023,36.604,41.203,4.600,296.1,546.5,291.0
2024-01-24T09:42:10,2420,42.8014,5.9826,4330,272,186.304,57.062,13.312,36.049,36.629,41.222,4.594,296.1,546.5,291.2
2024-01-24T09:45:10,2420,42.8014,5.9826,4330,272,186.565,57.138,13.309,36.033,36.614,41.212,4.599,296.1,546.4,291.3
2024-01-24T09:48:10,2420,42.8014,5.9826,4330,272,186.555,57.132,13.306,36.036,36.616,41.209,4.593,296.1,546.5,291.3
2024-01-24T09:51:10,2420,42.8014,5.9826,4330,272,186.568,57.139,13.309,36.033,36.613,41.209,4.595,296.0,546.4,291.3
2024-01-24T09:54:10,2420,42.8014,5.9826,4330,272,186.601,57.149,13.309,36.032,36.612,41.203,4.591,296.1,546.3,291.3
2024-01-24T09:57:10,2420,42.8014,5.9826,4330,272,186.692,57.177,13.309,36.025,36.606,41.197,4.591,296.1,546.3,291.3
2024-01-24T10:00:10,2420,42.8014,5.9826,4330,272,186.564,57.138,13.309,36.034,36.614,41.210,4.596,296.1,546.4,291.3
2024-01-24T10:03:10,2420,42.8014,5.9826,4330,272,186.534,57.136,13.314,36.033,36.613,41.200,4.588,296.0,546.3,291.1
2024-01-24T10:06:10,2420,42.8014,5.9826,4330,272,186.521,57.122,13.306,36.037,36.617,41.218,4.601,296.1,546.4,291.3
2024-01-24T10:09:10,2420,42.8014,5.9826,4330,272,186.541,57.138,13.314,36.032,36.612,41.208,4.596,296.1,546.4,291.1
2024-01-24T10:12:10,2420,42.8014,5.9826,4330,272,186.300,57.061,13.312,36.049,36.629,41.218,4.589,296.1,546.3,291.2
2024-01-24T10:15:10,2420,42.8014,5.9826,4330,272,186.701,57.187,13.315,36.022,36.602,41.196,4.594,296.0,546.3,291.1
2024-01-24T10:18:10,2420,42.8014,5.9826,4330,272,186.571,57.143,13.312,36.032,36.612,41.209,4.596,296.1,546.3,291.2
2024-01-24T10:21:10,2420,42.8014,5.9826,4330,272,186.583,57.148,13.312,36.031,36.611,41.201,4.590,296.1,546.3,291.2
2024-01-24T10:24:10,2420,42.8014,5.9826,4330,272,186.306,57.060,13.309,36.050,36.630,41.224,4.593,296.1,546.4,291.2
2024-01-24T10:27:10,2420,42.8014,5.9826,4330,272,186.578,57.150,13.315,36.029,36.610,41.204,4.594,296.1,546.3,291.1
2024-01-24T10:30:10,2420,42.8014,5.9826,4330,272,186.509,57.127,13.313,36.035,36.615,41.208,4.593,296.1,546.2,291.1
2024-01-24T10:33:10,2420,42.8014,5.9826,4330,272,186.580,57.144,13.309,36.032,36.613,41.207,4.594,296.0,546.2,291.2
2024-01-24T10:36:10,2420,42.8014,5.9826,4330,272,186.556,57.143,13.314,36.031,36.611,41.215,4.604,296.1,546.3,291.1
2024-01-24T10:39:10,2420,42.8014,5.9826,4330,272,186.266,57.052,13.313,36.051,36.631,41.223,4.592,296.1,546.3,291.1
2024-01-24T10:42:10,2420,42.8014,5.9826,4330,272,186.388,57.082,13.307,36.046,36.626,41.217,4.590,296.1,546.3,291.3
2024-01-24T10:45:10,2420,42.8014,5.9826,4330,272,186.632,57.169,13.317,36.025,36.605,41.201,4.596,296.1,546.3,291.0
2024-01-24T10:48:10,2420,42.8014,5.9826,4330,272,186.396,57.086,13.308,36.045,36.625,41.213,4.588,296.1,546.3,291.3
2024-01-24T10:51:10,2420,42.8014,5.9826,4330,272,186.477,57.120,13.316,36.036,36.616,41.211,4.595,296.1,546.3,291.0
2024-01-24T10:54:10,2420,42.8014,5.9826,4330,272,186.687,57.180,13.312,36.024,36.604,41.201,4.598,296.1,546.3,291.2
2024-01-24T10:57:10,2420,42.8014,5.9826,4330,272,186.248,57.046,13.313,36.052,36.632,41.225,4.593,296.1,546.4,291.1
2024-01-24T11:00:10,2420,42.8014,5.9826,4330,272,186.321,57.065,13.310,36.049,36.629,41.220,4.591,296.1,546.3,291.2
2024-01-24T11:03:10,2420,42.8014,5.9826,4330,272,186.443,57.108,13.315,36.039,36.619,41.211,4.592,296.1,546.3,291.1
2024-01-24T11:06:10,2420,42.8014,5.9826,4330,272,186.502,57.122,13.311,36.036,36.616,41.210,4.594,296.1,546.2,291.2
2024-01-24T11:09:10,2420,42.8014,5.9826,4330,272,186.436,57.096,13.307,36.043,36.623,41.213,4.591,296.2,546.2,291.3
2024-01-24T11:12:10,2420,42.8014,5.9826,4330,272,186.349,57.085,13.319,36.042,36.622,41.210,4.587,296.1,546.3,290.9
2024-01-24T11:15:10,2420,42.8014,5.9826,4330,272,186.422,57.093,13.308,36.043,36.623,41.215,4.592,296.1,546.2,291.3
2024-01-24T11:18:10,2420,42.8014,5.9826,4330,272,186.319,57.068,13.313,36.048,36.628,41.214,4.586,296.2,546.4,291.1
2024-01-24T11:21:10,2420,42.8014,5.9826,4330,272,186.448,57.100,13.307,36.042,36.622,41.216,4.594,296.1,546.3,291.3
2024-01-24T11:24:10,2420,42.8014,5.9826,4330,272,186.128,57.005,13.309,36.062,36.642,41.230,4.588,296.1,546.4,291.3
2024-01-24T11:27:10,2420,42.8014,5.9826,4330,272,186.271,57.049,13.310,36.052,36.632,41.222,4.590,296.2,546.3,291.2
2024-01-24T11:30:10,2420,42.8014,5.9826,4330,272,186.411,57.098,13.315,36.041,36.621,41.215,4.594,296.1,546.3,291.1
2024-01-24T11:33:10,2420,42.8014,5.9826,4330,272,186.548,57.144,13.318,36.030,36.611,41.203,4.593,296.1,546.3,291.0
2024-01-24T11:36:10,2420,42.8014,5.9826,4330,272,186.179,57.018,13.307,36.060,36.640,41.230,4.590,296.2,546.3,291.3
2024-01-24T11:39:10,2420,42.8014,5.9826,4330,272,186.087,57.006,13.320,36.059,36.639,41.228,4.589,296.2,546.2,290.9
2024-01-24T11:42:10,2420,42.8014,5.9826,4330,272,186.386,57.085,13.310,36.045,36.625,41.220,4.596,296.1,546.2,291.2
2024-01-24T11:45:10,2420,42.8014,5.9826,4330,272,186.476,57.109,13.307,36.040,36.620,41.207,4.587,296.1,546.3,291.3
2024-01-24T11:48:10,2420,42.8014,5.9826,4330,272,186.208,57.029,13.309,36.057,36.637,41.228,4.591,296.2,546.3,291.3
2024-01-24T11:51:10,2420,42.8014,5.9826,4330,272,186.513,57.125,13.311,36.036,36.616,41.207,4.591,296.1,546.2,291.2
2024-01-24T11:54:10,2420,42.8014,5.9826,4330,272,186.141,57.016,13.315,36.058,36.638,41.225,4.587,296.2,546.2,291.1
2024-01-24T11:57:10,2420,42.8014,5.9826,4330,272,186.387,57.092,13.315,36.042,36.622,41.211,4.589,296.2,546.1,291.1
2024-01-24T12:00:10,2420,42.8014,5.9826,4330,272,186.212,57.033,13.312,36.056,36.635,41.224,4.589,296.2,546.2,291.2
2024-01-24T12:03:10,2420,42.8014,5.9826,4330,272,186.329,57.069,13.311,36.048,36.628,41.217,4.589,296.2,546.2,291.2
2024-01-24T12:06:10,2420,42.8014,5.9826,4330,272,186.494,57.122,13.313,36.036,36.616,41.208,4.592,296.1,546.2,291.1
2024-01-24T12:09:10,2420,42.8014,5.9826,4330,272,186.499,57.120,13.311,36.037,36.617,41.208,4.591,296.3,546.3,291.2
2024-01-24T12:12:10,2420,42.8014,5.9826,4330,272,186.226,57.048,13.320,36.051,36.631,41.220,4.589,296.1,546.2,290.9
2024-01-24T12:15:10,2420,42.8014,5.9826,4330,272,186.164,57.015,13.309,36.060,36.640,41.230,4.590,296.2,546.3,291.3
2024-01-24T12:18:10,2420,42.8014,5.9826,4330,272,186.637,57.162,13.310,36.028,36.608,41.203,4.595,296.2,546.3,291.2
2024-01-24T12:21:10,2420,42.8014,5.9826,4330,272,186.292,57.055,13.309,36.051,36.631,41.218,4.587,296.2,546.3,291.3
